Find Starlink 30933

NORAD ID: 58410 Int'l Des: 2023-180 Owner: SPXS Country: US Constellation: starlink operational
LEOCIRCULAR

当前视图

正在加载3D地球...

About Starlink 30933

Starlink 30933 (NORAD 58410) is a starlink constellation satellite (v2 mini) launched Nov 22, 2023 by SPXS of US. It operates in LEO, CIRCULAR orbit with a mass of 730.00 kg.

即将过境

Passes for default location (London). Set your location on the main map for personalized predictions.

高度历史

Loading altitude history...

两行轨道根数

1 58410U 23180J 26235.77706587 .00000172 00000-0 15776-4 0 9997
2 58410 43.0021 43.1206 0001568 257.5622 102.5054 15.27574254154891
Epoch: Aug 23, 2026 • Age: 15 hours

当前状态

高度 482.5 km
远地点 / 近地点 N/A
速度 7.63 km/s
星下点 16.12°N, 87.21°E
发射日期 Nov 22, 2023
运行时间 2.7 years
类型 internet

技术详情

分类 Payload
质量 730.00 kg
干质量 700.00 kg
总质量 730.00 kg
长度 0.30 m
直径 4.10 m
跨度 29.00 m
形状 Box + pan
制造商 SPXS
平台类型 Starlink V2M
阶段状态 In Orbit
所有者/国家 SPXS/US

Most Searched